Weather History for KABQ - November, 2014

Change the Weather History Date:

Friday, November 21, 2014

  Actual Average Record
Temperature  
Mean Temperature 40 °F 42 °F  
Max Temperature 53 °F 53 °F 73 °F (1915)
Min Temperature 27 °F 32 °F 14 °F (1956)
Degree Days  
Heating Degree Days 25 23  
Month to date heating degree days 374 383  
Since 1 July heating degree days 487 649  
Cooling Degree Days 0 0  
Month to date cooling degree days 0 0  
Year to date cooling degree days 1444 1322  
Moisture  
Dew Point 15 °F    
Average Humidity 36    
Maximum Humidity 50    
Minimum Humidity 22    
Precipitation  
Precipitation 0.00 in 0.02 in 0.50 in (1905)
Month to date precipitation 0.25 0.41  
Year to date precipitation 7.67 8.79  
Snow  
Snow 0.00 in - - ()
Month to date snowfall T  
Since 1 July snowfall T  
Since 1 September snowfall T  
Snow Depth 0.00 in    
Sea Level Pressure  
Sea Level Pressure 30.01 in    
Wind  
Wind Speed 3 mph (North)    
Max Wind Speed 10 mph    
Max Gust Speed 11 mph    
Visibility 10 miles    
Events      
T = Trace of Precipitation, MM = Missing Value Source: NWS Daily Summary

Daily Weather History Graph

Daily Weather History Graph

Search for Another Location

Airport or City:

Trip Planner

Search our weather history database for the weather conditions in past years. The results will help you decide how hot, cold, wet, or windy it might be!

Date:

Astronomy

Nov. 21, 2014 Rise Set
Actual Time 6:46 AM MST 4:57 PM MST
Civil Twilight 6:19 AM MST 5:24 PM MST
Nautical Twilight 5:48 AM MST 5:55 PM MST
Astronomical Twilight 5:18 AM MST 6:25 PM MST
Moon 5:48 AM MST (11/21) 4:41 PM MST (11/21)
Length of Visible Light 11h 05m
Length of Day
10h 10m
Waning Crescent, 1% of the Moon is Illuminated
Nov 21
Waning Crescent
Nov 22
New
Nov 29
First Quarter
Dec 6
Full
Dec 14
Last Quarter

Hourly Weather History & Observations

Time (MST) Temp. Windchill Dew Point Humidity Pressure Visibility Wind Dir Wind Speed Gust Speed Precip Events Conditions
12:52 AM 37.0 °F - 12.0 °F 36% 29.99 in 10.0 mi Calm Calm - N/A   Clear
1:52 AM 37.0 °F - 10.9 °F 34% 29.99 in 10.0 mi Calm Calm - N/A   Clear
2:52 AM 37.0 °F 34.5 °F 12.0 °F 36% 29.98 in 10.0 mi NNW 3.5 mph - N/A   Clear
3:52 AM 35.1 °F 32.2 °F 12.0 °F 39% 29.98 in 10.0 mi NW 3.5 mph - N/A   Clear
4:52 AM 35.1 °F 29.3 °F 12.0 °F 39% 29.99 in 10.0 mi North 6.9 mph - N/A   Clear
5:52 AM 32.0 °F 24.8 °F 10.9 °F 42% 30.03 in 10.0 mi NNE 8.1 mph - N/A   Clear
6:52 AM 28.0 °F 22.8 °F 12.0 °F 51% 30.06 in 10.0 mi East 4.6 mph - N/A   Scattered Clouds
7:52 AM 32.0 °F 27.5 °F 12.9 °F 45% 30.09 in 10.0 mi NW 4.6 mph - N/A   Mostly Cloudy
8:52 AM 37.0 °F 31.0 °F 14.0 °F 39% 30.07 in 10.0 mi North 8.1 mph - N/A   Mostly Cloudy
9:52 AM 39.9 °F 34.5 °F 15.1 °F 36% 30.06 in 10.0 mi NNW 8.1 mph - N/A   Mostly Cloudy
10:52 AM 45.0 °F 42.6 °F 15.1 °F 30% 30.04 in 10.0 mi NW 4.6 mph - N/A   Mostly Cloudy
11:52 AM 48.0 °F - 14.0 °F 26% 30.01 in 10.0 mi NE 3.5 mph - N/A   Overcast
12:52 PM 50.0 °F - 14.0 °F 24% 29.97 in 10.0 mi Calm Calm - N/A   Overcast
1:52 PM 52.0 °F - 15.1 °F 23% 29.94 in 10.0 mi Calm Calm - N/A   Overcast
2:52 PM 53.1 °F - 15.1 °F 22% 29.94 in 10.0 mi West 4.6 mph - N/A   Overcast
3:52 PM 52.0 °F - 15.1 °F 23% 29.96 in 10.0 mi Calm Calm - N/A   Overcast
4:52 PM 50.0 °F - 15.1 °F 25% 29.97 in 10.0 mi ENE 3.5 mph - N/A   Mostly Cloudy
5:52 PM 48.9 °F - 16.0 °F 27% 30.00 in 10.0 mi Calm Calm - N/A   Mostly Cloudy
6:52 PM 43.0 °F - 18.0 °F 37% 30.04 in 10.0 mi Calm Calm - N/A   Mostly Cloudy
7:52 PM 43.0 °F - 17.1 °F 35% 30.04 in 10.0 mi Calm Calm - N/A   Scattered Clouds
8:52 PM 42.1 °F 40.2 °F 19.0 °F 40% 30.04 in 10.0 mi ENE 3.5 mph - N/A   Mostly Cloudy
9:52 PM 42.1 °F 40.2 °F 19.9 °F 41% 30.05 in 10.0 mi NE 3.5 mph - N/A   Scattered Clouds
10:52 PM 39.0 °F - 19.9 °F 46% 30.04 in 10.0 mi Calm Calm - N/A   Scattered Clouds
11:52 PM 37.9 °F 32.7 °F 19.0 °F 47% 30.04 in 10.0 mi North 6.9 mph - N/A   Partly Cloudy